CW7563 Weather Reports


Display with metric or nautical units.
time (UTC)temp
F
wind
direction
speed
MPH
gust
MPH
rain 1hr
in
rain 24hr
in
rain mn
in
humidity
%
barometer
mb
20260503002807 69 244 2.0 3.0 0.00 0.00 0.00 65 1010.6
20260503002307 69 291 2.0 3.0 0.00 0.00 0.00 66 1010.7
20260503001807 68 294 3.0 6.0 0.00 0.00 0.00 66 1010.7
20260503001307 68 303 3.0 5.0 0.00 0.00 0.00 65 1010.8
20260503000307 69 245 3.0 6.0 0.00 0.00 0.00 64 1010.9
20260502235807 69 236 2.0 3.0 0.00 0.00 0.00 65 1010.8
20260502234807 68 195 2.0 6.0 0.00 0.00 0.00 66 1010.9
20260502234307 68 261 1.0 6.0 0.00 0.00 0.00 65 1010.9
20260502233807 68 260 4.0 6.0 0.00 0.00 0.00 65 1010.9
20260502233308 69 259 2.0 7.0 0.00 0.00 0.00 65 1011.0
20260502232807 68 192 3.0 6.0 0.00 0.00 0.00 66 1011.1
20260502232307 69 240 3.0 8.0 0.00 0.00 0.00 66 1011.2
20260502231807 69 205 2.0 5.0 0.00 0.00 0.00 65 1011.2
20260502231307 68 212 2.0 6.0 0.00 0.00 0.00 66 1011.3
20260502230306 67 215 3.0 7.0 0.00 0.00 0.00 68 1011.6
20260502225807 67 288 2.0 5.0 0.00 0.00 0.00 68 1011.6
20260502225306 66 271 3.0 9.0 0.00 0.00 0.00 68 1011.7
20260502224807 66 283 3.0 5.0 0.00 0.00 0.00 67 1011.8
20260502224307 67 243 3.0 7.0 0.00 0.00 0.00 67 1011.8
20260502223807 67 221 2.0 5.0 0.00 0.00 0.00 67 1011.9
20260502223306 67 314 3.0 7.0 0.00 0.00 0.00 67 1011.9
20260502222807 67 319 3.0 6.0 0.00 0.00 0.00 68 1012.0
20260502222307 66 264 3.0 7.0 0.00 0.00 0.00 66 1012.0
20260502221807 67 244 5.0 7.0 0.00 0.00 0.00 66 1012.0
20260502221306 67 233 2.0 6.0 0.00 0.00 0.00 68 1012.1
20260502220307 67 273 2.0 5.0 0.00 0.00 0.00 67 1012.2
20260502215807 66 1 2.0 5.0 0.00 0.00 0.00 68 1012.3
20260502215307 65 268 2.0 5.0 0.00 0.00 0.00 68 1012.4
20260502214807 65 261 3.0 8.0 0.00 0.00 0.00 68 1012.5
20260502214307 65 268 3.0 7.0 0.00 0.00 0.00 68 1012.6
20260502213306 64 46 1.0 3.0 0.00 0.00 0.00 69 1012.7
20260502212807 63 192 1.0 3.0 0.00 0.00 0.00 71 1012.8
20260502212307 63 356 3.0 7.0 0.00 0.00 0.00 71 1012.9
20260502211807 63 4 4.0 8.0 0.00 0.00 0.00 70 1012.9
20260502211307 64 14 1.0 3.0 0.00 0.00 0.00 70 1013.0
20260502210807 61 214 3.0 7.0 0.00 0.00 0.00 74 1013.0
20260502210307 61 146 5.0 7.0 0.00 0.00 0.00 73 1013.1
20260502205807 61 186 4.0 7.0 0.00 0.00 0.00 73 1013.3
20260502205307 61 202 4.0 6.0 0.00 0.00 0.00 75 1013.3
20260502204806 61 116 3.0 6.0 0.00 0.00 0.00 75 1013.4
20260502204306 61 43 3.0 6.0 0.00 0.00 0.00 74 1013.5
20260502203807 61 339 2.0 6.0 0.00 0.00 0.00 74 1013.6
20260502203306 60 232 2.0 3.0 0.00 0.00 0.00 76 1013.7
20260502202806 59 174 2.0 3.0 0.00 0.00 0.00 76 1013.8
20260502202306 59 356 2.0 3.0 0.00 0.00 0.00 77 1013.9
20260502201807 59 291 5.0 7.0 0.00 0.00 0.00 76 1014.0
20260502201306 58 298 2.0 3.0 0.00 0.00 0.00 78 1014.0
20260502200806 59 254 2.0 3.0 0.00 0.00 0.00 77 1014.1
20260502200307 58 192 2.0 5.0 0.00 0.00 0.00 79 1014.2
20260502195806 58 168 2.0 3.0 0.00 0.00 0.00 78 1014.2
20260502195306 57 215 1.0 3.0 0.00 0.00 0.00 79 1014.3
20260502194807 57 349 2.0 8.0 0.00 0.00 0.00 79 1014.3
20260502194307 56 266 3.0 7.0 0.00 0.00 0.00 80 1014.4
20260502193806 57 272 5.0 9.0 0.00 0.00 0.00 80 1014.3
20260502193306 56 340 4.0 10.0 0.00 0.00 0.00 80 1014.4
20260502192807 56 302 1.0 5.0 0.00 0.00 0.00 81 1014.5
20260502192306 56 295 3.0 7.0 0.00 0.00 0.00 82 1014.3
20260502191807 55 286 6.0 9.0 0.00 0.00 0.00 82 1014.4
20260502190806 55 265 3.0 8.0 0.00 0.00 0.00 83 1014.8
20260502185307 55 228 3.0 7.0 0.00 0.00 0.00 83 1015.1
20260502183806 54 309 4.0 7.0 0.00 0.00 0.00 82 1014.9
20260502183306 54 233 4.0 7.0 0.00 0.00 0.00 83 1014.9
20260502182306 54 279 2.0 7.0 0.00 0.00 0.00 82 1014.8
20260502181806 54 288 2.0 3.0 0.00 0.00 0.00 82 1014.9
20260502181306 54 259 2.0 3.0 0.00 0.00 0.00 82 1014.9
20260502180807 54 285 3.0 6.0 0.00 0.00 0.00 82 1014.9
20260502180306 54 304 3.0 5.0 0.00 0.00 0.00 81 1014.9
20260502170306 53 324 2.0 5.0 0.00 0.00 0.00 83 1015.3
20260502164306 53 1 5.0 8.0 0.00 0.00 0.00 82 1015.3
20260502163806 53 3 2.0 8.0 0.00 0.00 0.00 82 1015.2
20260502163306 53 32 3.0 7.0 0.00 0.00 0.00 82 1015.2
20260502162806 53 357 3.0 8.0 0.00 0.00 0.00 82 1015.3
20260502162306 53 338 4.0 8.0 0.00 0.00 0.00 82 1015.3
20260502161806 53 352 5.0 8.0 0.00 0.00 0.00 82 1015.3
20260502161306 53 354 2.0 3.0 0.00 0.00 0.00 81 1015.3
20260502160806 53 272 2.0 3.0 0.00 0.00 0.00 81 1015.3
20260502160306 53 335 3.0 5.0 0.00 0.00 0.00 81 1015.4
20260502152306 52 6 1.0 3.0 0.00 0.00 0.00 82 1015.3
20260502151305 51 104 1.0 3.0 0.00 0.00 0.00 83 1015.2
20260502150306 51 5 1.0 3.0 0.00 0.00 0.00 84 1015.3
20260502130306 48 300 2.0 3.0 0.00 0.00 0.00 86 1015.4
20260502123805 49 248 0.0 2.0 0.00 0.00 0.00 86 1015.3
20260502123305 49 248 0.0 2.0 0.00 0.00 0.00 86 1015.3
20260502122306 49 248 0.0 0.0 0.00 0.00 0.00 85 1015.3
20260502121806 49 248 0.0 3.0 0.00 0.00 0.00 86 1015.3
20260502121306 49 254 1.0 3.0 0.00 0.00 0.00 86 1015.3
20260502120806 49 214 0.0 2.0 0.00 0.00 0.00 85 1015.3
20260502120305 49 214 0.0 1.0 0.00 0.00 0.00 85 1015.2
20260502115306 49 327 0.0 1.0 0.00 0.00 0.00 84 1015.1
20260502114805 49 327 1.0 2.0 0.00 0.00 0.00 84 1015.3
20260502113806 50 329 1.0 3.0 0.00 0.00 0.00 84 1015.2
20260502113306 50 330 1.0 2.0 0.00 0.00 0.00 84 1015.2
20260502112805 50 330 1.0 5.0 0.00 0.00 0.00 84 1015.3
20260502112306 50 354 2.0 3.0 0.00 0.00 0.00 84 1015.3
20260502111805 50 250 1.0 2.0 0.00 0.00 0.00 83 1015.3
20260502111305 50 250 1.0 2.0 0.00 0.00 0.00 83 1015.4
20260502110805 50 250 0.0 2.0 0.00 0.00 0.00 83 1015.5
20260502110305 50 229 2.0 5.0 0.00 0.00 0.00 83 1015.5
20260502105805 50 226 2.0 3.0 0.00 0.00 0.00 83 1015.4
20260502105306 50 244 2.0 3.0 0.00 0.00 0.00 83 1015.3
20260502104306 50 272 1.0 3.0 0.00 0.00 0.00 83 1015.2
20260502103305 51 274 0.0 2.0 0.00 0.00 0.00 82 1015.3
20260502102805 51 274 1.0 2.0 0.00 0.00 0.00 82 1015.4
20260502102306 51 276 1.0 3.0 0.00 0.00 0.00 82 1015.3
20260502101805 51 308 2.0 3.0 0.00 0.00 0.00 82 1015.2
20260502101305 51 217 1.0 3.0 0.00 0.00 0.00 82 1015.2
20260502100805 52 204 1.0 2.0 0.00 0.00 0.00 82 1015.1
20260502100305 52 203 1.0 3.0 0.00 0.00 0.00 81 1015.1
20260502091306 53 284 1.0 2.0 0.00 0.00 0.00 77 1016.0
20260502090805 53 284 0.0 3.0 0.00 0.00 0.00 77 1016.1
20260502090306 53 283 2.0 3.0 0.00 0.00 0.00 76 1016.1
20260502071305 55 246 1.0 3.0 0.00 0.00 0.00 72 1015.9
20260502070818 55 228 1.0 3.0 0.00 0.00 0.00 72 1016.0
20260502070305 56 262 2.0 3.0 0.00 0.00 0.00 72 1016.0
20260502065804 56 246 1.0 3.0 0.00 0.00 0.00 72 1015.9
20260502064805 56 269 1.0 3.0 0.00 0.00 0.00 71 1015.9
20260502064305 56 247 0.0 3.0 0.00 0.00 0.00 71 1016.0
20260502063805 56 246 0.0 1.0 0.00 0.00 0.00 71 1016.0
20260502063305 56 244 1.0 2.0 0.00 0.00 0.00 71 1016.1
20260502062306 57 242 2.0 3.0 0.00 0.00 0.00 70 1015.9
20260502061805 57 238 1.0 3.0 0.00 0.00 0.00 70 1015.8
20260502061304 57 242 1.0 3.0 0.00 0.00 0.00 69 1015.8
20260502060805 57 281 2.0 3.0 0.00 0.00 0.00 69 1015.8
20260502060305 58 238 2.0 5.0 0.00 0.00 0.00 69 1015.8
20260502055805 58 261 1.0 5.0 0.00 0.00 0.00 68 1015.8
20260502055306 58 288 3.0 3.0 0.00 0.00 0.00 68 1015.8
20260502054805 58 223 2.0 3.0 0.00 0.00 0.00 68 1015.6
20260502054305 58 272 2.0 5.0 0.00 0.00 0.00 67 1015.5
20260502053805 58 308 1.0 7.0 0.00 0.00 0.00 67 1015.6
20260502053304 59 301 3.0 7.0 0.00 0.00 0.00 66 1015.5
20260502052804 59 278 2.0 7.0 0.00 0.00 0.00 67 1015.5
20260502052306 59 258 2.0 3.0 0.00 0.00 0.00 66 1015.4
20260502051305 59 295 2.0 5.0 0.00 0.00 0.00 65 1015.5
20260502050805 59 276 2.0 5.0 0.00 0.00 0.00 65 1015.5
20260502045804 60 281 3.0 7.0 0.00 0.00 0.00 64 1015.3
20260502045306 60 261 3.0 7.0 0.00 0.00 0.00 64 1015.3
20260502044805 60 263 2.0 5.0 0.00 0.00 0.00 64 1015.2
20260502044304 60 281 1.0 3.0 0.00 0.00 0.00 65 1015.2
20260502043804 60 273 2.0 3.0 0.00 0.00 0.00 64 1015.2
20260502043305 60 254 3.0 7.0 0.00 0.00 0.00 64 1015.1
20260502042805 60 303 2.0 10.0 0.00 0.00 0.00 64 1015.1
20260502042306 60 275 5.0 8.0 0.00 0.00 0.00 64 1015.0
20260502041304 61 252 3.0 7.0 0.00 0.00 0.00 65 1014.8
20260502040805 61 263 4.0 8.0 0.00 0.00 0.00 65 1014.8
20260502040305 61 288 3.0 13.0 0.00 0.00 0.00 65 1014.7
20260502035804 61 275 4.0 9.0 0.00 0.00 0.00 65 1014.6
20260502035306 61 280 4.0 9.0 0.00 0.00 0.00 65 1014.6
20260502034805 62 287 4.0 8.0 0.00 0.00 0.00 64 1014.4
20260502034304 62 300 3.0 10.0 0.00 0.00 0.00 64 1014.2
20260502033804 62 294 5.0 12.0 0.00 0.00 0.00 64 1014.2
20260502033304 63 294 5.0 10.0 0.00 0.00 0.00 63 1014.2
20260502032804 63 262 6.0 12.0 0.00 0.00 0.00 63 1014.1
20260502032306 63 271 5.0 10.0 0.00 0.00 0.00 62 1014.0
20260502031304 64 278 7.0 12.0 0.00 0.00 0.00 61 1013.9
20260502030804 65 260 6.0 12.0 0.00 0.00 0.00 60 1013.9
20260502030304 65 282 7.0 14.0 0.00 0.00 0.00 59 1013.9
20260502025804 66 272 3.0 12.0 0.00 0.00 0.00 59 1013.8
20260502025306 66 236 5.0 12.0 0.00 0.00 0.00 58 1013.7
20260502024804 67 269 3.0 12.0 0.00 0.00 0.00 58 1013.6
20260502023805 68 256 2.0 3.0 0.00 0.00 0.00 60 1013.4
20260502023304 68 285 4.0 9.0 0.00 0.00 0.00 59 1013.4
20260502022805 69 258 6.0 10.0 0.00 0.00 0.00 59 1013.2
20260502022306 69 198 3.0 9.0 0.00 0.00 0.00 59 1013.1
20260502021808 69 196 3.0 6.0 0.00 0.00 0.00 60 1013.1
20260502021308 70 188 3.0 8.0 0.00 0.00 0.00 59 1013.1
20260502020807 70 234 3.0 6.0 0.00 0.00 0.00 60 1013.0
20260502020307 70 264 2.0 5.0 0.00 0.00 0.00 60 1013.0
20260502015808 70 230 3.0 7.0 0.00 0.00 0.00 61 1013.0
20260502015308 70 230 3.0 8.0 0.00 0.00 0.00 61 1012.9
20260502014808 70 257 3.0 6.0 0.00 0.00 0.00 61 1012.9
20260502014308 70 214 2.0 9.0 0.00 0.00 0.00 61 1012.9
20260502013808 70 198 7.0 12.0 0.00 0.00 0.00 60 1012.9
20260502013308 71 187 5.0 12.0 0.00 0.00 0.00 59 1012.9
20260502012808 71 192 3.0 7.0 0.00 0.00 0.00 60 1012.9
20260502012307 72 185 5.0 13.0 0.00 0.00 0.00 59 1012.9
20260502011808 72 201 5.0 10.0 0.00 0.00 0.00 58 1012.9
20260502011308 72 163 2.0 6.0 0.00 0.00 0.00 58 1012.9
20260502010807 73 209 3.0 5.0 0.00 0.00 0.00 57 1012.8
20260502010308 73 159 2.0 9.0 0.00 0.00 0.00 58 1012.7
20260502005808 72 204 2.0 6.0 0.00 0.00 0.00 57 1012.7
20260502004808 73 182 3.0 9.0 0.00 0.00 0.00 56 1012.6
20260502004307 73 176 3.0 9.0 0.00 0.00 0.00 56 1012.7
20260502003807 73 213 2.0 5.0 0.00 0.00 0.00 55 1012.8
20260502003307 72 179 3.0 7.0 0.00 0.00 0.00 56 1012.8